Time,TemperatureF,DewpointF,PressureIn,WindDirection,WindDirectionDegrees,WindSpeedMPH,WindSpeedGustMPH,Humidity,HourlyPrecipIn,Conditions,Clouds,dailyrainin,SoftwareType,DateUTC
2013-01-16 00:03:00,29.0,-53.0,30.08,NNE,20,3.0,7.0,0,-99.99,,,-99.99,,2013-01-16 06:03:00,
2013-01-16 00:12:00,28.0,-53.0,30.09,North,0,3.0,6.0,0,-99.99,,,-99.99,,2013-01-16 06:12:00,
2013-01-16 00:22:00,28.0,-53.0,30.09,North,0,3.0,6.0,0,-99.99,,,-99.99,,2013-01-16 06:22:00,
2013-01-16 00:32:00,28.0,-50.0,30.11,North,5,3.0,5.0,2,-99.99,,,-99.99,,2013-01-16 06:32:00,
2013-01-16 00:43:00,28.0,-99.9,30.11,North,0,2.0,4.0,-999,-99.99,,,-99.99,,2013-01-16 06:43:00,
2013-01-16 00:53:00,28.0,-99.9,30.11,North,0,2.0,4.0,-999,-99.99,,,-99.99,,2013-01-16 06:53:00,
2013-01-16 01:02:00,28.0,-53.0,30.10,NW,325,2.0,6.0,0,-99.99,,,-99.99,,2013-01-16 07:02:00,
2013-01-16 01:12:00,28.0,-54.0,30.11,NW,325,4.0,5.0,0,-99.99,,,-99.99,,2013-01-16 07:12:00,
2013-01-16 01:22:00,28.0,-54.0,30.11,NW,325,4.0,5.0,0,-99.99,,,-99.99,,2013-01-16 07:22:00,
2013-01-16 01:33:00,27.0,-50.0,30.10,NW,320,3.0,5.0,2,-99.99,,,-99.99,,2013-01-16 07:33:00,
2013-01-16 01:42:00,27.0,-44.0,30.10,NW,325,3.0,5.0,3,-99.99,,,-99.99,,2013-01-16 07:42:00,
2013-01-16 01:52:00,27.0,-44.0,30.10,NW,325,3.0,5.0,3,-99.99,,,-99.99,,2013-01-16 07:52:00,
2013-01-16 02:02:00,27.0,-54.0,30.10,NNW,330,2.0,6.0,0,-99.99,,,-99.99,,2013-01-16 08:02:00,
2013-01-16 02:12:00,26.0,-54.0,30.10,NNW,330,2.0,5.0,0,-99.99,,,-99.99,,2013-01-16 08:12:00,
2013-01-16 02:22:00,26.0,-54.0,30.10,NNW,330,2.0,5.0,0,-99.99,,,-99.99,,2013-01-16 08:22:00,
2013-01-16 02:32:00,26.0,-55.0,30.10,NW,310,1.0,2.0,0,-99.99,,,-99.99,,2013-01-16 08:32:00,
2013-01-16 02:42:00,26.0,-55.0,30.10,NW,325,2.0,4.0,0,-99.99,,,-99.99,,2013-01-16 08:42:00,
2013-01-16 02:52:00,26.0,-55.0,30.10,NW,325,2.0,4.0,0,-99.99,,,-99.99,,2013-01-16 08:52:00,
2013-01-16 03:02:00,26.0,-45.0,30.10,NNW,340,4.0,6.0,3,-99.99,,,-99.99,,2013-01-16 09:02:00,
2013-01-16 03:12:00,25.0,-51.0,30.10,NW,320,2.0,5.0,2,-99.99,,,-99.99,,2013-01-16 09:12:00,
2013-01-16 03:22:00,25.0,-51.0,30.10,NW,320,2.0,5.0,2,-99.99,,,-99.99,,2013-01-16 09:22:00,
2013-01-16 03:32:00,25.0,-52.0,30.10,NW,325,3.0,4.0,2,-99.99,,,-99.99,,2013-01-16 09:32:00,
2013-01-16 03:42:00,25.0,-52.0,30.10,NNW,330,4.0,6.0,2,-99.99,,,-99.99,,2013-01-16 09:42:00,
2013-01-16 03:52:00,25.0,-52.0,30.10,NNW,330,4.0,6.0,2,-99.99,,,-99.99,,2013-01-16 09:52:00,
2013-01-16 04:02:00,24.0,-46.0,30.09,NW,315,2.0,4.0,3,-99.99,,,-99.99,,2013-01-16 10:02:00,
2013-01-16 04:12:00,24.0,-46.0,30.09,NW,320,3.0,4.0,3,-99.99,,,-99.99,,2013-01-16 10:12:00,
2013-01-16 04:22:00,24.0,-46.0,30.09,NW,320,3.0,4.0,3,-99.99,,,-99.99,,2013-01-16 10:22:00,
2013-01-16 04:32:00,24.0,-46.0,30.09,NNW,330,4.0,5.0,3,-99.99,,,-99.99,,2013-01-16 10:32:00,
2013-01-16 04:42:00,24.0,-46.0,30.10,NW,320,3.0,5.0,3,-99.99,,,-99.99,,2013-01-16 10:42:00,
2013-01-16 04:52:00,24.0,-46.0,30.10,NW,320,3.0,5.0,3,-99.99,,,-99.99,,2013-01-16 10:52:00,
2013-01-16 05:02:00,24.0,-99.9,30.09,NW,305,2.0,3.0,-999,-99.99,,,-99.99,,2013-01-16 11:02:00,
2013-01-16 05:12:00,23.0,-46.0,30.07,North,5,1.0,3.0,3,-99.99,,,-99.99,,2013-01-16 11:12:00,
2013-01-16 05:22:00,23.0,-46.0,30.07,North,5,1.0,3.0,3,-99.99,,,-99.99,,2013-01-16 11:22:00,
2013-01-16 05:33:00,23.0,-42.0,30.06,North,0,3.0,3.0,4,-99.99,,,-99.99,,2013-01-16 11:33:00,
2013-01-16 05:42:00,23.0,-46.0,30.06,NW,325,2.0,5.0,3,-99.99,,,-99.99,,2013-01-16 11:42:00,
2013-01-16 05:52:00,23.0,-46.0,30.06,NW,325,2.0,5.0,3,-99.99,,,-99.99,,2013-01-16 11:52:00,
2013-01-16 06:03:00,23.0,-47.0,30.07,NW,305,4.0,6.0,3,-99.99,,,-99.99,,2013-01-16 12:03:00,
2013-01-16 06:13:00,23.0,-57.0,30.06,NW,305,3.0,6.0,0,-99.99,,,-99.99,,2013-01-16 12:13:00,
2013-01-16 06:22:00,23.0,-57.0,30.06,NW,305,3.0,6.0,0,-99.99,,,-99.99,,2013-01-16 12:22:00,
2013-01-16 06:33:00,22.0,-99.9,30.06,SW,215,1.0,2.0,-999,-99.99,,,-99.99,,2013-01-16 12:33:00,
2013-01-16 06:43:00,21.0,-65.0,30.07,SW,225,2.0,3.0,1,-99.99,,,-99.99,,2013-01-16 12:43:00,
2013-01-16 06:53:00,21.0,-65.0,30.07,SW,225,2.0,3.0,1,-99.99,,,-99.99,,2013-01-16 12:53:00,
2013-01-16 07:03:00,22.0,-39.0,30.09,WSW,240,2.0,3.0,5,-99.99,,,-99.99,,2013-01-16 13:03:00,
2013-01-16 07:13:00,22.0,-99.9,30.08,West,265,1.0,3.0,-999,-99.99,,,-99.99,,2013-01-16 13:13:00,
2013-01-16 07:23:00,22.0,-99.9,30.08,West,265,1.0,3.0,-999,-99.99,,,-99.99,,2013-01-16 13:23:00,
2013-01-16 07:33:00,22.0,-99.9,30.10,SW,220,1.0,4.0,-999,-99.99,,,-99.99,,2013-01-16 13:33:00,
2013-01-16 08:03:00,22.0,-33.0,30.10,NW,305,3.0,6.0,7,-99.99,,,-99.99,,2013-01-16 14:03:00,
2013-01-16 08:12:00,23.0,-64.0,30.09,WNW,290,3.0,6.0,1,-99.99,,,-99.99,,2013-01-16 14:12:00,
2013-01-16 08:23:00,23.0,-64.0,30.09,WNW,290,3.0,6.0,1,-99.99,,,-99.99,,2013-01-16 14:23:00,
2013-01-16 08:33:00,24.0,-41.0,30.09,NW,315,4.0,7.0,4,-99.99,,,-99.99,,2013-01-16 14:33:00,
2013-01-16 08:43:00,24.0,-99.9,30.08,NW,305,4.0,8.0,-999,-99.99,,,-99.99,,2013-01-16 14:43:00,
2013-01-16 08:53:00,24.0,-99.9,30.08,NW,305,4.0,8.0,-999,-99.99,,,-99.99,,2013-01-16 14:53:00,
2013-01-16 09:00:00,27.0,-61.0,30.09,WNW,300,7.0,11.0,1,-99.99,,,-99.99,,2013-01-16 15:00:00,
2013-01-16 09:03:00,24.0,-63.0,30.09,NW,310,3.0,8.0,1,-99.99,,,-99.99,,2013-01-16 15:03:00,
2013-01-16 09:12:00,25.0,-56.0,30.08,NW,315,5.0,7.0,0,-99.99,,,-99.99,,2013-01-16 15:12:00,
2013-01-16 09:23:00,25.0,-56.0,30.08,NW,315,5.0,7.0,0,-99.99,,,-99.99,,2013-01-16 15:23:00,
2013-01-16 09:33:00,26.0,-62.0,30.09,West,280,6.0,9.0,1,-99.99,,,-99.99,,2013-01-16 15:33:00,
2013-01-16 09:43:00,27.0,-61.0,30.09,WNW,300,7.0,11.0,1,-99.99,,,-99.99,,2013-01-16 15:43:00,
2013-01-16 09:52:00,27.0,-61.0,30.09,WNW,300,7.0,11.0,1,-99.99,,,-99.99,,2013-01-16 15:52:00,
2013-01-16 10:00:00,30.0,-48.0,30.08,West,270,4.0,12.0,2,-99.99,,,-99.99,,2013-01-16 16:00:00,
2013-01-16 10:12:00,28.0,-53.0,30.08,West,270,6.0,11.0,0,-99.99,,,-99.99,,2013-01-16 16:12:00,
2013-01-16 10:22:00,28.0,-53.0,30.08,West,270,6.0,11.0,0,-99.99,,,-99.99,,2013-01-16 16:22:00,
2013-01-16 10:33:00,29.0,-60.0,30.08,West,265,5.0,11.0,1,-99.99,,,-99.99,,2013-01-16 16:33:00,
2013-01-16 10:42:00,30.0,-48.0,30.08,West,270,4.0,12.0,2,-99.99,,,-99.99,,2013-01-16 16:42:00,
2013-01-16 10:52:00,30.0,-48.0,30.08,West,270,4.0,12.0,2,-99.99,,,-99.99,,2013-01-16 16:52:00,
2013-01-16 11:12:00,32.0,-51.0,30.09,SW,235,3.0,8.0,0,-99.99,,,-99.99,,2013-01-16 17:12:00,
2013-01-16 11:23:00,32.0,-51.0,30.09,SW,235,3.0,8.0,0,-99.99,,,-99.99,,2013-01-16 17:23:00,
2013-01-16 11:33:00,33.0,-40.0,30.08,SW,235,5.0,11.0,3,-99.99,,,-99.99,,2013-01-16 17:33:00,
2013-01-16 11:43:00,32.0,-47.0,30.07,West,270,9.0,13.0,2,-99.99,,,-99.99,,2013-01-16 17:43:00,
2013-01-16 11:53:00,32.0,-47.0,30.07,West,270,9.0,13.0,2,-99.99,,,-99.99,,2013-01-16 17:53:00,
2013-01-16 12:03:00,34.0,-39.0,30.06,SW,235,6.0,10.0,3,-99.99,,,-99.99,,2013-01-16 18:03:00,
2013-01-16 12:13:00,35.0,-99.9,30.05,West,275,5.0,9.0,-999,-99.99,,,-99.99,,2013-01-16 18:13:00,
2013-01-16 12:23:00,35.0,-99.9,30.05,West,275,5.0,9.0,-999,-99.99,,,-99.99,,2013-01-16 18:23:00,
2013-01-16 12:33:00,36.0,-99.9,30.04,West,270,6.0,12.0,-999,-99.99,,,-99.99,,2013-01-16 18:33:00,
2013-01-16 12:42:00,37.0,-24.0,30.04,WSW,250,6.0,12.0,6,-99.99,,,-99.99,,2013-01-16 18:42:00,
2013-01-16 12:53:00,37.0,-24.0,30.04,WSW,250,6.0,12.0,6,-99.99,,,-99.99,,2013-01-16 18:53:00,
2013-01-16 13:03:00,39.0,-99.9,30.03,NW,315,4.0,13.0,-999,-99.99,,,-99.99,,2013-01-16 19:03:00,
2013-01-16 13:12:00,39.0,-36.0,30.03,WNW,290,9.0,12.0,3,-99.99,,,-99.99,,2013-01-16 19:12:00,
2013-01-16 13:23:00,39.0,-36.0,30.03,WNW,290,9.0,12.0,3,-99.99,,,-99.99,,2013-01-16 19:23:00,
2013-01-16 13:33:00,39.0,-35.0,30.02,NW,315,8.0,17.0,3,-99.99,,,-99.99,,2013-01-16 19:33:00,
2013-01-16 13:43:00,40.0,-46.0,30.02,West,270,6.0,12.0,0,-99.99,,,-99.99,,2013-01-16 19:43:00,
2013-01-16 13:52:00,40.0,-46.0,30.02,West,270,6.0,12.0,0,-99.99,,,-99.99,,2013-01-16 19:52:00,
2013-01-16 14:03:00,41.0,-45.0,30.02,NW,325,10.0,15.0,0,-99.99,,,-99.99,,2013-01-16 20:03:00,
2013-01-16 14:12:00,40.0,-53.0,30.01,West,275,6.0,16.0,1,-99.99,,,-99.99,,2013-01-16 20:12:00,
2013-01-16 14:23:00,40.0,-53.0,30.01,West,275,6.0,16.0,1,-99.99,,,-99.99,,2013-01-16 20:23:00,
2013-01-16 14:33:00,41.0,-45.0,30.00,WSW,240,6.0,12.0,0,-99.99,,,-99.99,,2013-01-16 20:33:00,
2013-01-16 14:42:00,41.0,-45.0,30.00,West,275,6.0,14.0,0,-99.99,,,-99.99,,2013-01-16 20:42:00,
2013-01-16 14:53:00,41.0,-45.0,30.00,West,275,6.0,14.0,0,-99.99,,,-99.99,,2013-01-16 20:53:00,
2013-01-16 15:03:00,42.0,-45.0,30.01,West,275,5.0,14.0,0,-99.99,,,-99.99,,2013-01-16 21:03:00,
2013-01-16 15:12:00,42.0,-45.0,30.00,WNW,290,7.0,14.0,0,-99.99,,,-99.99,,2013-01-16 21:12:00,
2013-01-16 15:22:00,42.0,-45.0,30.00,WNW,290,7.0,14.0,0,-99.99,,,-99.99,,2013-01-16 21:22:00,
2013-01-16 15:33:00,43.0,-44.0,29.99,WNW,290,9.0,13.0,0,-99.99,,,-99.99,,2013-01-16 21:33:00,
2013-01-16 15:43:00,44.0,-51.0,29.99,NNW,335,7.0,19.0,1,-99.99,,,-99.99,,2013-01-16 21:43:00,
2013-01-16 15:52:00,44.0,-51.0,29.99,NNW,335,7.0,19.0,1,-99.99,,,-99.99,,2013-01-16 21:52:00,
2013-01-16 16:03:00,43.0,-44.0,29.99,West,280,7.0,12.0,0,-99.99,,,-99.99,,2013-01-16 22:03:00,
2013-01-16 16:12:00,43.0,-44.0,30.00,SW,235,4.0,13.0,0,-99.99,,,-99.99,,2013-01-16 22:12:00,
2013-01-16 16:23:00,43.0,-44.0,30.00,SW,235,4.0,13.0,0,-99.99,,,-99.99,,2013-01-16 22:23:00,
2013-01-16 16:33:00,44.0,-44.0,30.01,WNW,295,6.0,10.0,0,-99.99,,,-99.99,,2013-01-16 22:33:00,
2013-01-16 16:43:00,44.0,-44.0,30.02,West,270,9.0,11.0,0,-99.99,,,-99.99,,2013-01-16 22:43:00,
2013-01-16 16:52:00,44.0,-44.0,30.02,West,270,9.0,11.0,0,-99.99,,,-99.99,,2013-01-16 22:52:00,
2013-01-16 17:03:00,43.0,-44.0,30.02,West,270,9.0,14.0,0,-99.99,,,-99.99,,2013-01-16 23:03:00,
2013-01-16 17:12:00,43.0,-44.0,30.02,West,280,6.0,10.0,0,-99.99,,,-99.99,,2013-01-16 23:12:00,
2013-01-16 17:23:00,43.0,-44.0,30.02,West,280,6.0,10.0,0,-99.99,,,-99.99,,2013-01-16 23:23:00,
2013-01-16 17:32:00,42.0,-45.0,30.02,SW,230,4.0,9.0,0,-99.99,,,-99.99,,2013-01-16 23:32:00,
2013-01-16 17:42:00,41.0,-45.0,30.03,WSW,255,4.0,12.0,0,-99.99,,,-99.99,,2013-01-16 23:42:00,
2013-01-16 17:52:00,41.0,-45.0,30.03,WSW,255,4.0,12.0,0,-99.99,,,-99.99,,2013-01-16 23:52:00,
2013-01-16 18:02:00,40.0,-46.0,30.04,West,275,3.0,11.0,0,-99.99,,,-99.99,,2013-01-17 00:02:00,
2013-01-16 18:12:00,40.0,-46.0,30.03,West,260,4.0,7.0,0,-99.99,,,-99.99,,2013-01-17 00:12:00,
2013-01-16 18:22:00,40.0,-46.0,30.03,West,260,4.0,7.0,0,-99.99,,,-99.99,,2013-01-17 00:22:00,
2013-01-16 18:32:00,39.0,-46.0,30.04,SW,225,1.0,4.0,0,-99.99,,,-99.99,,2013-01-17 00:32:00,
2013-01-16 18:42:00,39.0,-54.0,30.04,SW,215,2.0,5.0,1,-99.99,,,-99.99,,2013-01-17 00:42:00,
2013-01-16 18:52:00,39.0,-54.0,30.04,SW,215,2.0,5.0,1,-99.99,,,-99.99,,2013-01-17 00:52:00,
2013-01-16 19:02:00,38.0,-47.0,30.05,SW,235,2.0,5.0,0,-99.99,,,-99.99,,2013-01-17 01:02:00,
2013-01-16 19:12:00,37.0,-47.0,30.05,SW,215,1.0,4.0,0,-99.99,,,-99.99,,2013-01-17 01:12:00,
2013-01-16 19:22:00,37.0,-47.0,30.05,SW,215,1.0,4.0,0,-99.99,,,-99.99,,2013-01-17 01:22:00,
2013-01-16 19:33:00,37.0,-48.0,30.06,SW,215,1.0,3.0,0,-99.99,,,-99.99,,2013-01-17 01:33:00,
2013-01-16 19:42:00,37.0,-47.0,30.06,NW,305,1.0,3.0,0,-99.99,,,-99.99,,2013-01-17 01:42:00,
2013-01-16 19:50:00,35.0,-99.9,30.07,West,260,0.0,2.0,-999,-99.99,,,-99.99,,2013-01-17 01:50:00,
2013-01-16 19:52:00,37.0,-47.0,30.06,NW,305,1.0,3.0,0,-99.99,,,-99.99,,2013-01-17 01:52:00,
2013-01-16 20:02:00,38.0,-47.0,30.07,NE,45,1.0,4.0,0,-99.99,,,-99.99,,2013-01-17 02:02:00,
2013-01-16 20:12:00,37.0,-48.0,30.07,South,170,1.0,3.0,0,-99.99,,,-99.99,,2013-01-17 02:12:00,
2013-01-16 20:22:00,37.0,-48.0,30.07,South,170,1.0,3.0,0,-99.99,,,-99.99,,2013-01-17 02:22:00,
2013-01-16 20:32:00,35.0,-99.9,30.07,West,260,0.0,2.0,-999,-99.99,,,-99.99,,2013-01-17 02:32:00,
2013-01-16 20:43:00,35.0,-99.9,30.07,West,260,0.0,2.0,-999,-99.99,,,-99.99,,2013-01-17 02:43:00,
2013-01-16 21:03:00,34.0,-99.9,30.07,ESE,105,0.0,1.0,-999,-99.99,,,-99.99,,2013-01-17 03:03:00,
2013-01-16 21:12:00,34.0,-99.9,30.07,South,185,0.0,2.0,-999,-99.99,,,-99.99,,2013-01-17 03:12:00,
2013-01-16 21:22:00,34.0,-99.9,30.07,South,185,0.0,2.0,-999,-99.99,,,-99.99,,2013-01-17 03:22:00,
2013-01-16 21:32:00,33.0,-50.0,30.07,WNW,290,0.0,2.0,0,-99.99,,,-99.99,,2013-01-17 03:32:00,
2013-01-16 21:42:00,32.0,-51.0,30.08,SW,215,1.0,2.0,0,-99.99,,,-99.99,,2013-01-17 03:42:00,
2013-01-16 21:52:00,32.0,-51.0,30.08,SW,215,1.0,2.0,0,-99.99,,,-99.99,,2013-01-17 03:52:00,
2013-01-16 22:02:00,31.0,-99.9,30.07,SSW,210,0.0,2.0,-999,-99.99,,,-99.99,,2013-01-17 04:02:00,
2013-01-16 22:12:00,31.0,-99.9,30.07,SW,225,0.0,1.0,-999,-99.99,,,-99.99,,2013-01-17 04:12:00,
2013-01-16 22:23:00,31.0,-99.9,30.07,SW,225,0.0,1.0,-999,-99.99,,,-99.99,,2013-01-17 04:23:00,
2013-01-16 22:33:00,31.0,-99.9,30.07,SW,230,0.0,3.0,-999,-99.99,,,-99.99,,2013-01-17 04:33:00,
2013-01-16 22:43:00,31.0,-99.9,30.06,SSW,200,3.0,3.0,-999,-99.99,,,-99.99,,2013-01-17 04:43:00,
2013-01-16 22:53:00,31.0,-99.9,30.06,SSW,200,3.0,3.0,-999,-99.99,,,-99.99,,2013-01-17 04:53:00,
2013-01-16 23:05:00,31.0,-99.9,30.07,WSW,255,0.0,2.0,-999,-99.99,,,-99.99,,2013-01-17 05:05:00,
2013-01-16 23:12:00,31.0,-99.9,30.07,WNW,295,1.0,3.0,-999,-99.99,,,-99.99,,2013-01-17 05:12:00,
2013-01-16 23:22:00,31.0,-99.9,30.07,WNW,295,1.0,3.0,-999,-99.99,,,-99.99,,2013-01-17 05:22:00,
2013-01-16 23:33:00,30.0,-52.0,30.07,SW,220,1.0,1.0,0,-99.99,,,-99.99,,2013-01-17 05:33:00,
2013-01-16 23:42:00,30.0,-52.0,30.07,SSW,210,1.0,2.0,0,-99.99,,,-99.99,,2013-01-17 05:42:00,
2013-01-16 23:52:00,30.0,-52.0,30.07,SSW,210,1.0,2.0,0,-99.99,,,-99.99,,2013-01-17 05:52:00,